Weather History for Hamilton, OH

Change the Weather History Date:

Friday, March 15, 2013

  Actual Average (KCVG) Record (KCVG)
Temperature  
Mean Temperature 40 °F 43 °F  
Max Temperature 53 °F 53 °F 82 °F (1944)
Min Temperature 26 °F 34 °F 10 °F (1993)
Degree Days  
Heating Degree Days 26 22  
Month to date heating degree days 365  
Since 1 July heating degree days 4192  
Cooling Degree Days 0 0  
Month to date cooling degree days 0  
Year to date cooling degree days 0  
Moisture  
Dew Point 31 °F    
Average Humidity 75    
Maximum Humidity 100    
Minimum Humidity 50    
Precipitation  
Precipitation 0.00 in 0.14 in 1.24 in (1948)
Month to date precipitation 1.74  
Year to date precipitation 7.55  
Snow  
Snow 0.00 in 0.10 in 4.00 in (1896)
Month to date snowfall 1.8  
Since 1 July snowfall 20.4  
Snow Depth -    
Sea Level Pressure  
Sea Level Pressure 30.01 in    
Wind  
Wind Speed 2 mph (SW)    
Max Wind Speed 8 mph    
Max Gust Speed -    
Visibility 8 miles    
Events Snow    
T = Trace of Precipitation, MM = Missing Value Source: NWS Daily Summary

Daily Weather History Graph

Daily Weather History Graph

Search for Another Location

Airport:

Trip Planner

Search our weather history database for the weather conditions in past years. The results will help you decide how hot, cold, wet, or windy it might be!

Date:

Astronomy

Mar. 15, 2013 Rise Set
Actual Time 7:49 AM EDT 7:45 PM EDT
Civil Twilight 7:22 AM EDT 8:12 PM EDT
Nautical Twilight 6:51 AM EDT 8:43 PM EDT
Astronomical Twilight 6:19 AM EDT 9:14 PM EDT
Moon 9:40 AM EDT (3/15) 11:56 PM EDT (3/15)
Length of Visible Light 12h 49m
Length of Day
11h 56m
Waxing Crescent, 15% of the Moon is Illuminated
Mar 15
Waxing Crescent
Mar 19
First Quarter
Mar 27
Full
Apr 3
Last Quarter
Apr 10
New

Hourly Weather History & Observations

Time (EDT) Temp. Windchill Dew Point Humidity Pressure Visibility Wind Dir Wind Speed Gust Speed Precip Events Conditions
12:53 AM 35.1 °F 31.0 °F 26.1 °F 70% 30.21 in 10.0 mi West 4.6 mph - N/A   Clear
1:53 AM 34.0 °F - 28.0 °F 79% 30.19 in 10.0 mi Calm Calm - N/A   Mostly Cloudy
2:53 AM 34.0 °F - 28.9 °F 82% 30.17 in 10.0 mi Calm Calm - N/A   Clear
3:53 AM 30.0 °F - 28.0 °F 92% 30.14 in 10.0 mi Calm Calm - N/A   Clear
4:53 AM 28.0 °F - 25.0 °F 88% 30.12 in 8.0 mi Calm Calm - 0.00 in Snow Light Snow
5:53 AM 27.0 °F - 25.0 °F 92% 30.10 in 6.0 mi Calm Calm - 0.00 in Snow Light Snow
6:53 AM 27.0 °F - 24.1 °F 89% 30.08 in 3.0 mi Calm Calm - 0.00 in Snow Light Snow
7:39 AM 26.6 °F - 24.8 °F 93% 30.05 in 2.0 mi Calm Calm - 0.00 in Snow Light Snow
7:53 AM 27.0 °F - 25.0 °F 92% 30.06 in 1.8 mi Calm Calm - 0.00 in Snow Light Snow
8:02 AM 26.6 °F - 26.6 °F 100% 30.05 in 3.0 mi Calm Calm - 0.00 in Snow Light Snow
8:14 AM 26.6 °F - 24.8 °F 93% 30.04 in 2.5 mi Calm Calm - 0.00 in Snow Light Snow
8:24 AM 28.4 °F - 24.8 °F 86% 30.04 in 3.0 mi Calm Calm - 0.00 in Snow Light Snow
8:53 AM 30.9 °F - 28.9 °F 92% 30.06 in 5.0 mi Calm Calm - 0.00 in   Clear
9:53 AM 37.0 °F - 30.9 °F 79% 30.04 in 9.0 mi Calm Calm - N/A   Clear
10:53 AM 39.9 °F 37.8 °F 32.0 °F 73% 30.01 in 10.0 mi West 3.5 mph - N/A   Clear
11:53 AM 43.0 °F 38.8 °F 33.1 °F 68% 30.01 in 10.0 mi West 6.9 mph - N/A   Clear
12:53 PM 44.1 °F 39.5 °F 32.0 °F 63% 30.00 in 10.0 mi West 8.1 mph - N/A   Clear
1:53 PM 46.0 °F 43.9 °F 33.1 °F 61% 29.99 in 10.0 mi Variable 4.6 mph - N/A   Clear
2:53 PM 48.9 °F - 34.0 °F 56% 29.95 in 10.0 mi Variable 4.6 mph - N/A   Clear
3:53 PM 51.1 °F - 35.1 °F 54% 29.93 in 10.0 mi West 8.1 mph - N/A   Clear
4:53 PM 53.1 °F - 35.1 °F 50% 29.92 in 10.0 mi SW 6.9 mph - N/A   Clear
5:53 PM 53.1 °F - 36.0 °F 52% 29.91 in 10.0 mi WSW 5.8 mph - N/A   Scattered Clouds
6:53 PM 52.0 °F - 37.0 °F 57% 29.91 in 10.0 mi WSW 3.5 mph - N/A   Overcast
7:53 PM 48.9 °F - 37.0 °F 64% 29.87 in 10.0 mi East 5.8 mph - N/A   Overcast
8:53 PM 46.9 °F - 37.9 °F 71% 29.89 in 10.0 mi East 3.5 mph - N/A   Mostly Cloudy
9:53 PM 46.0 °F 44.8 °F 39.0 °F 76% 29.88 in 10.0 mi ESE 3.5 mph - N/A   Overcast
10:53 PM 48.0 °F - 37.0 °F 66% 29.85 in 10.0 mi East 3.5 mph - N/A   Overcast
11:53 PM 46.9 °F - 37.0 °F 68% 29.81 in 10.0 mi Calm Calm - N/A   Mostly Cloudy